Location: Johnson City
(36.3130°N, 82.3540°W)
Time: 11:16:56
(UTC-05:00)

X-37B - Pass Details

Date: 07 December 2021
Orbit: 334 x 337 km, 45.0° (Epoch: 11 January)

Event Time Altitude Azimuth Distance (km) Brightness Sun altitude
Rises 18:16:54 0° 250° (WSW) 2,093 6.5 -12.4°
Reaches altitude 10° 18:18:55 10° 255° (WSW) 1,259 4.7 -12.8°
Maximum altitude 18:21:41 51° 334° (NNW) 423 0.8 -13.3°
Enters shadow 18:22:58 26° 39° (NE) 698 1.4 -13.6°
